Location: Albany
(35.0000°S, 118.0000°E)
Time: 04:13:12
(UTC-05:00)

Cosmos 1933 - Visible Passes

Search period start: 21 December 2014 00:00
Search period end: 31 December 2014 00:00
Orbit: 553 x 572 km, 82.5° (Epoch: 19 December)

Date Brightness Start Highest point End Pass type
(mag) Time Alt. Az. Time Alt. Az. Time Alt. Az.
21 Dec 5.5 11:13:25 24° SSW 11:13:25 24° SSW 11:15:20 10° S visible
22 Dec 5.6 11:12:57 22° SSW 11:12:57 22° SSW 11:14:49 10° SSW visible
23 Dec 6.0 09:36:29 12° SE 09:36:29 12° SE 09:36:55 10° SE visible
23 Dec 5.7 11:12:27 20° SW 11:12:27 20° SW 11:14:16 10° SSW visible
24 Dec 5.9 09:35:59 14° SE 09:35:59 14° SE 09:36:53 10° SE visible
24 Dec 5.8 11:11:57 18° SW 11:11:57 18° SW 11:13:38 10° SSW visible
25 Dec 5.7 09:35:27 17° SE 09:35:27 17° SE 09:36:44 10° SE visible
25 Dec 5.9 11:11:25 16° SW 11:11:25 16° SW 11:12:57 10° SSW visible
26 Dec 5.5 09:34:54 20° SE 09:34:54 20° SE 09:36:31 10° SSE visible
26 Dec 6.1 11:10:51 14° SW 11:10:51 14° SW 11:12:09 10° SW visible
27 Dec 5.3 09:34:19 24° SE 09:34:19 24° SE 09:36:15 10° SSE visible
27 Dec 6.2 11:10:17 12° WSW 11:10:17 12° WSW 11:11:11 10° SW visible
28 Dec 5.0 09:33:43 28° SE 09:33:43 28° SE 09:35:56 10° SSE visible
28 Dec 6.3 11:09:40 10° WSW 11:09:40 10° WSW 11:09:44 10° WSW visible
29 Dec 4.8 09:33:05 33° SSE 09:33:05 33° SSE 09:35:34 10° SSE visible
30 Dec 4.6 09:32:26 39° SSE 09:32:26 39° SSE 09:35:10 10° S visible
